GW1213 Weather Reports


Display with metric or nautical units.
time (UTC)temp
F
wind
direction
speed
MPH
gust
MPH
rain 1hr
in
rain 24hr
in
rain mn
in
humidity
%
barometer
mb
20260903162035 82 0 0.0 3.0 0.00 0.00 0.00 82 1016.6
20260903161617 82 0 0.0 4.0 0.00 0.00 0.00 82 1016.8
20260903161041 82 0 1.0 4.0 0.00 0.00 0.00 82 1016.8
20260903160537 82 71 0.0 4.0 0.00 0.00 0.00 82 1017.0
20260903160058 81 196 1.0 4.0 0.00 0.00 0.00 84 1017.0
20260903155537 80 0 1.0 3.0 0.00 0.00 0.00 87 1017.1
20260903155037 80 0 1.0 3.0 0.00 0.00 0.00 87 1017.0
20260903154602 79 196 0.0 3.0 0.00 0.00 0.00 88 1017.1
20260903154038 79 0 0.0 0.0 0.00 0.00 0.00 88 1017.3
20260903153538 78 0 0.0 0.0 0.00 0.00 0.00 89 1017.4
20260903153102 78 0 0.0 0.0 0.00 0.00 0.00 89 1017.3
20260903152538 78 0 0.0 0.0 0.00 0.00 0.00 90 1017.4
20260903152038 78 0 0.0 0.0 0.00 0.00 0.00 91 1017.4
20260903151604 77 0 0.0 0.0 0.00 0.00 0.00 91 1017.3
20260903151037 77 0 0.0 0.0 0.00 0.00 0.00 91 1017.3
20260903150535 77 0 0.0 1.0 0.00 0.00 0.00 91 1017.1
20260903150108 77 0 0.0 3.0 0.00 0.00 0.00 91 1017.0
20260903145537 77 0 0.0 3.0 0.00 0.00 0.00 92 1016.9
20260903145038 76 0 1.0 3.0 0.00 0.00 0.00 92 1016.9
20260903144600 76 0 1.0 3.0 0.00 0.00 0.00 92 1016.8
20260903144037 76 74 1.0 4.0 0.00 0.00 0.00 93 1016.7
20260903143539 76 71 0.0 4.0 0.00 0.00 0.00 93 1016.7
20260903143101 76 0 0.0 4.0 0.00 0.00 0.00 93 1016.8
20260903142541 76 0 0.0 3.0 0.00 0.00 0.00 93 1017.0
20260903142038 76 0 0.0 3.0 0.00 0.00 0.00 94 1016.8
20260903141600 76 0 0.0 3.0 0.00 0.00 0.00 93 1016.8
20260903141041 76 0 0.0 3.0 0.00 0.00 0.00 93 1016.9
20260903140538 76 0 0.0 0.0 0.00 0.00 0.00 93 1017.0
20260903140109 76 0 0.0 0.0 0.00 0.00 0.00 94 1017.0
20260903135537 75 0 0.0 0.0 0.00 0.00 0.00 94 1017.0
20260903135037 75 0 0.0 0.0 0.00 0.00 0.00 94 1016.9
20260903134610 75 0 0.0 0.0 0.00 0.00 0.00 94 1016.8
20260903134038 75 0 0.0 0.0 0.00 0.00 0.00 94 1016.8
20260903133538 75 0 0.0 3.0 0.00 0.00 0.00 94 1016.8
20260903133102 75 0 0.0 3.0 0.00 0.00 0.00 94 1016.9
20260903132537 75 86 0.0 2.0 0.00 0.00 0.00 94 1017.1
20260903132037 75 0 0.0 3.0 0.00 0.00 0.00 94 1017.2
20260903131559 75 0 0.0 3.0 0.00 0.00 0.00 94 1017.2
20260903131038 75 0 0.0 3.0 0.00 0.00 0.00 95 1017.1
20260903130537 75 20 0.0 0.0 0.00 0.00 0.00 95 1017.3
20260903130104 75 0 0.0 0.0 0.00 0.00 0.00 95 1017.4
20260903125538 75 0 0.0 0.0 0.00 0.00 0.00 96 1017.5
20260903125038 75 0 0.0 1.0 0.00 0.00 0.00 96 1017.5
20260903124606 74 0 0.0 2.0 0.00 0.00 0.00 96 1017.5
20260903124037 74 331 0.0 4.0 0.00 0.00 0.00 96 1017.5
20260903123537 74 0 1.0 4.0 0.00 0.00 0.00 96 1017.5
20260903123058 74 338 2.0 4.0 0.00 0.00 0.00 96 1017.5
20260903122538 74 313 0.0 0.0 0.00 0.00 0.00 97 1017.4
20260903122039 74 0 0.0 0.0 0.00 0.00 0.00 97 1017.5
20260903121601 74 0 0.0 0.0 0.00 0.00 0.00 97 1017.1
20260903121040 74 0 0.0 0.0 0.00 0.00 0.00 97 1017.0
20260903120540 74 0 0.0 0.0 0.00 0.00 0.00 97 1017.0
20260903120106 74 0 0.0 0.0 0.00 0.00 0.00 97 1016.7
20260903115538 74 0 0.0 0.0 0.00 0.00 0.00 97 1016.7
20260903115035 74 0 0.0 0.0 0.00 0.00 0.00 97 1016.6
20260903114601 74 0 0.0 0.0 0.00 0.00 0.00 97 1016.6
20260903114037 74 0 0.0 0.0 0.00 0.00 0.00 97 1016.6
20260903113542 74 0 0.0 0.0 0.00 0.00 0.00 97 1016.5
20260903113059 73 0 0.0 0.0 0.00 0.00 0.00 97 1016.4
20260903112538 73 0 0.0 0.0 0.00 0.00 0.00 97 1016.4
20260903112038 73 0 0.0 0.0 0.00 0.00 0.00 97 1016.3
20260903111558 73 0 0.0 0.0 0.00 0.00 0.00 97 1016.3
20260903111038 73 0 0.0 0.0 0.00 0.00 0.00 96 1016.2
20260903110538 73 0 0.0 0.0 0.00 0.00 0.00 96 1016.0
20260903105538 73 0 0.0 0.0 0.00 0.00 0.00 96 1015.8
20260903105038 73 0 0.0 0.0 0.00 0.00 0.00 96 1015.8
20260903104602 73 0 0.0 0.0 0.00 0.00 0.00 96 1015.7
20260903104037 73 0 0.0 0.0 0.00 0.00 0.00 96 1015.7
20260903103536 73 0 0.0 0.0 0.00 0.00 0.00 96 1015.7
20260903103100 73 0 0.0 0.0 0.00 0.00 0.00 96 1015.7
20260903102534 73 0 0.0 0.0 0.00 0.00 0.00 96 1015.6
20260903102037 73 0 0.0 0.0 0.00 0.00 0.00 96 1015.6
20260903101557 73 0 0.0 0.0 0.00 0.00 0.00 96 1015.6
20260903101037 73 0 0.0 0.0 0.00 0.00 0.00 96 1015.6
20260903100537 73 0 0.0 0.0 0.00 0.00 0.00 96 1015.6
20260903095535 73 0 0.0 0.0 0.00 0.00 0.00 96 1015.7
20260903095037 73 0 0.0 0.0 0.00 0.00 0.00 96 1015.7
20260903094610 73 0 0.0 0.0 0.00 0.00 0.00 96 1015.8
20260903094038 73 0 0.0 0.0 0.00 0.00 0.00 96 1015.9
20260903093541 73 0 0.0 0.0 0.00 0.00 0.00 96 1015.9
20260903093103 73 0 0.0 0.0 0.00 0.00 0.00 96 1015.9
20260903092537 73 0 0.0 0.0 0.00 0.00 0.00 96 1015.9
20260903092035 73 0 0.0 0.0 0.00 0.00 0.00 96 1015.7
20260903091603 72 0 0.0 0.0 0.00 0.00 0.00 96 1015.8
20260903091041 72 0 0.0 0.0 0.00 0.00 0.00 96 1015.8
20260903090535 72 0 0.0 0.0 0.00 0.00 0.00 95 1015.8
20260903085539 72 0 0.0 0.0 0.00 0.00 0.00 96 1015.8
20260903085037 73 0 0.0 0.0 0.00 0.00 0.00 96 1015.7
20260903084600 73 0 0.0 0.0 0.00 0.00 0.00 96 1015.7
20260903084038 73 0 0.0 0.0 0.00 0.00 0.00 96 1015.6
20260903083539 73 0 0.0 0.0 0.00 0.00 0.00 96 1015.5
20260903083106 73 0 0.0 0.0 0.00 0.00 0.00 95 1015.6
20260903082541 73 0 0.0 0.0 0.00 0.00 0.00 95 1015.5
20260903082040 73 0 0.0 0.0 0.00 0.00 0.00 95 1015.6
20260903081601 73 0 0.0 0.0 0.00 0.00 0.00 95 1015.6
20260903081041 73 0 0.0 0.0 0.00 0.00 0.00 95 1015.7
20260903080537 73 0 0.0 0.0 0.00 0.00 0.00 95 1015.5
20260903075538 73 0 0.0 0.0 0.00 0.00 0.00 95 1015.6
20260903075041 73 0 0.0 0.0 0.00 0.00 0.00 95 1015.6
20260903074558 73 0 0.0 0.0 0.00 0.00 0.00 95 1015.6
20260903074036 73 0 0.0 0.0 0.00 0.00 0.00 95 1015.6
20260903073536 73 0 0.0 0.0 0.00 0.00 0.00 95 1015.4
20260903073110 73 0 0.0 0.0 0.00 0.00 0.00 95 1015.4
20260903072538 73 0 0.0 0.0 0.00 0.00 0.00 95 1015.3
20260903072038 73 0 0.0 0.0 0.00 0.00 0.00 95 1015.3
20260903071601 73 0 0.0 0.0 0.00 0.00 0.00 95 1015.4
20260903071035 73 0 0.0 0.0 0.00 0.00 0.00 95 1015.3
20260903070540 73 0 0.0 0.0 0.00 0.00 0.00 95 1015.3
20260903070108 73 0 0.0 0.0 0.00 0.00 0.00 95 1015.4
20260903065535 73 0 0.0 0.0 0.00 0.00 0.00 95 1015.5
20260903065038 73 0 0.0 0.0 0.00 0.00 0.00 95 1015.6
20260903064557 73 0 0.0 0.0 0.00 0.00 0.00 95 1015.6
20260903064035 73 0 0.0 0.0 0.00 0.00 0.00 95 1015.7
20260903063539 73 0 0.0 0.0 0.00 0.00 0.00 94 1015.8
20260903063125 73 0 0.0 0.0 0.00 0.00 0.00 94 1015.7
20260903062538 73 0 0.0 0.0 0.00 0.00 0.00 94 1015.9
20260903062036 73 0 0.0 0.0 0.00 0.00 0.00 94 1016.0
20260903061559 73 0 0.0 0.0 0.00 0.00 0.00 94 1016.1
20260903061035 73 0 0.0 0.0 0.00 0.00 0.00 94 1016.1
20260903060534 73 0 0.0 0.0 0.00 0.00 0.00 94 1016.1
20260903060104 73 0 0.0 0.0 0.00 0.00 0.00 94 1016.2
20260903055536 73 0 0.0 0.0 0.00 0.00 0.00 94 1016.3
20260903055035 73 0 0.0 0.0 0.00 0.00 0.00 94 1016.3
20260903054558 73 0 0.0 0.0 0.00 0.00 0.00 94 1016.5
20260903054037 73 0 0.0 0.0 0.00 0.00 0.00 94 1016.5
20260903053536 73 0 0.0 0.0 0.00 0.00 0.00 94 1016.5
20260903053059 73 0 0.0 0.0 0.00 0.00 0.00 94 1016.6
20260903052536 73 0 0.0 0.0 0.00 0.00 0.00 94 1016.4
20260903052035 73 0 0.0 0.0 0.00 0.00 0.00 94 1016.4
20260903051604 73 0 0.0 0.0 0.00 0.00 0.00 94 1016.5
20260903051038 74 0 0.0 0.0 0.00 0.00 0.00 94 1016.6
20260903050542 74 0 0.0 0.0 0.00 0.00 0.00 94 1016.6
20260903050104 74 0 0.0 0.0 0.00 0.00 0.00 94 1016.7
20260903045536 74 0 0.0 0.0 0.00 0.00 0.00 94 1016.6
20260903045038 74 0 0.0 0.0 0.00 0.00 0.00 94 1016.7
20260903044558 74 0 0.0 0.0 0.00 0.00 0.00 93 1016.7
20260903044039 74 0 0.0 0.0 0.00 0.00 0.00 93 1016.7
20260903043538 74 0 0.0 0.0 0.00 0.00 0.00 93 1016.7
20260903043108 74 0 0.0 0.0 0.00 0.00 0.00 93 1016.7
20260903042534 74 0 0.0 0.0 0.00 0.00 0.00 93 1016.8
20260903042035 74 0 0.0 0.0 0.00 0.00 0.00 93 1016.8
20260903041606 74 0 0.0 0.0 0.00 0.00 0.00 93 1016.6
20260903041034 74 0 0.0 0.0 0.00 0.00 0.00 93 1016.6
20260903040540 74 0 0.0 0.0 0.00 0.00 0.00 93 1016.7
20260903040105 74 0 0.0 0.0 0.00 0.00 0.00 93 1016.6
20260903035535 74 0 0.0 0.0 0.00 0.00 0.00 93 1016.7
20260903035035 74 0 0.0 0.0 0.00 0.00 0.00 93 1016.7
20260903034558 74 0 0.0 0.0 0.00 0.00 0.00 93 1016.7
20260903034036 74 0 0.0 0.0 0.00 0.00 0.00 93 1016.6
20260903033535 74 0 0.0 0.0 0.00 0.00 0.00 94 1016.5
20260903033058 74 0 0.0 0.0 0.00 0.00 0.00 94 1016.4
20260903032535 75 0 0.0 0.0 0.00 0.00 0.00 93 1016.4
20260903032037 75 0 0.0 0.0 0.00 0.00 0.00 93 1016.2
20260903031600 75 0 0.0 0.0 0.00 0.00 0.00 93 1016.1
20260903031038 75 0 0.0 0.0 0.00 0.00 0.00 93 1016.1
20260903030540 75 0 0.0 0.0 0.00 0.00 0.00 93 1016.1
20260903030110 75 0 0.0 0.0 0.00 0.00 0.00 93 1016.1
20260903025535 75 0 0.0 0.0 0.00 0.00 0.00 93 1016.0
20260903025035 75 0 0.0 0.0 0.00 0.00 0.00 93 1016.0
20260903024558 75 0 0.0 0.0 0.00 0.00 0.00 92 1015.9
20260903024037 75 0 0.0 0.0 0.00 0.00 0.00 92 1016.0
20260903023535 75 0 0.0 0.0 0.00 0.00 0.00 91 1015.9
20260903023101 75 0 0.0 0.0 0.00 0.00 0.00 92 1015.9
20260903022536 75 0 0.0 0.0 0.00 0.00 0.00 91 1015.9
20260903022038 75 0 0.0 0.0 0.00 0.00 0.00 91 1015.8
20260903021604 75 0 0.0 0.0 0.00 0.00 0.00 91 1015.9
20260903021038 75 0 0.0 0.0 0.00 0.00 0.00 91 1016.0
20260903020537 75 0 0.0 0.0 0.00 0.00 0.00 91 1016.2
20260903020059 75 0 0.0 0.0 0.00 0.00 0.00 90 1016.3
20260903015538 75 0 0.0 0.0 0.00 0.00 0.00 90 1016.4
20260903015036 75 0 0.0 0.0 0.00 0.00 0.00 91 1016.4
20260903014601 75 0 0.0 0.0 0.00 0.00 0.00 91 1016.5
20260903014045 75 0 0.0 0.0 0.00 0.00 0.00 90 1016.6
20260903013538 75 0 0.0 0.0 0.00 0.00 0.00 90 1016.5
20260903013057 75 0 0.0 0.0 0.00 0.00 0.00 90 1016.5
20260903012541 75 0 0.0 0.0 0.00 0.00 0.00 90 1016.4
20260903012035 75 0 0.0 0.0 0.00 0.00 0.00 90 1016.3
20260903011606 76 0 0.0 0.0 0.00 0.00 0.00 89 1016.4
20260903011038 76 0 0.0 0.0 0.00 0.00 0.00 89 1016.4
20260903010542 76 0 0.0 0.0 0.00 0.00 0.00 89 1016.7
20260903010058 76 0 0.0 0.0 0.00 0.00 0.00 88 1016.7
20260903005539 76 0 0.0 0.0 0.00 0.00 0.00 88 1016.7
20260903005036 76 0 0.0 0.0 0.00 0.00 0.00 88 1016.8
20260903004609 76 0 0.0 0.0 0.00 0.00 0.00 88 1016.6
20260903004038 76 0 0.0 0.0 0.00 0.00 0.00 88 1016.6
20260903003537 76 0 0.0 0.0 0.00 0.00 0.00 88 1016.7
20260903003059 76 0 0.0 0.0 0.00 0.00 0.00 87 1016.4
20260903002535 76 0 0.0 0.0 0.00 0.00 0.00 87 1016.3
20260903002038 76 0 0.0 0.0 0.00 0.00 0.00 87 1016.2
20260903001602 76 0 0.0 0.0 0.00 0.00 0.00 87 1016.1
20260903001040 77 0 0.0 0.0 0.00 0.00 0.00 87 1016.4
20260903000537 77 0 0.0 0.0 0.00 0.00 0.00 86 1016.3
20260903000059 77 0 0.0 0.0 0.00 0.00 0.00 86 1016.2
20260902235536 77 0 0.0 0.0 0.00 0.00 0.00 85 1016.3
20260902235035 77 0 0.0 0.0 0.00 0.00 0.00 86 1016.4
20260902234557 77 0 0.0 0.0 0.00 0.00 0.00 86 1016.1
20260902234035 77 0 0.0 0.0 0.00 0.00 0.00 85 1015.9
20260902233535 77 0 0.0 0.0 0.00 0.00 0.00 84 1016.1
20260902233104 77 0 0.0 0.0 0.00 0.00 0.00 84 1016.3
20260902232537 77 0 0.0 0.0 0.00 0.00 0.00 84 1016.6
20260902232038 78 0 0.0 0.0 0.00 0.00 0.00 84 1016.6
20260902231607 78 0 0.0 0.0 0.00 0.00 0.00 84 1016.7
20260902231038 78 0 0.0 0.0 0.00 0.00 0.00 84 1016.7
20260902230537 78 0 0.0 0.0 0.00 0.00 0.00 84 1016.7
20260902230105 78 0 0.0 0.0 0.00 0.00 0.00 82 1017.0
20260902225540 78 0 0.0 0.0 0.00 0.00 0.00 82 1017.0
20260902225041 78 0 0.0 0.0 0.00 0.00 0.00 81 1016.9
20260902224558 78 0 0.0 0.0 0.00 0.00 0.00 81 1016.9
20260902224035 78 0 0.0 0.0 0.00 0.00 0.00 81 1017.0
20260902223535 78 0 0.0 0.0 0.00 0.00 0.00 82 1017.0
20260902223114 78 0 0.0 2.0 0.00 0.00 0.00 82 1017.0
20260902222534 78 0 0.0 3.0 0.00 0.00 0.00 81 1017.2
20260902222038 78 0 0.0 4.0 0.00 0.00 0.00 81 1017.0
20260902221601 78 0 1.0 4.0 0.00 0.00 0.00 81 1017.1
20260902221041 78 78 0.0 3.0 0.00 0.00 0.00 80 1017.0
20260902220538 78 79 0.0 3.0 0.00 0.00 0.00 81 1016.7
20260902215535 78 0 0.0 1.0 0.00 0.00 0.00 83 1016.3
20260902215037 78 0 0.0 1.0 0.00 0.00 0.00 81 1016.5
20260902214557 78 0 0.0 3.0 0.00 0.00 0.00 81 1016.5
20260902214035 78 0 0.0 3.0 0.00 0.00 0.00 79 1016.6
20260902213538 78 0 0.0 0.0 0.00 0.00 0.00 80 1016.3
20260902213107 79 0 0.0 0.0 0.00 0.00 0.00 81 1016.3
20260902212536 78 0 0.0 0.0 0.00 0.00 0.00 79 1016.6
20260902212038 78 0 0.0 1.0 0.00 0.00 0.00 80 1016.6
20260902211600 78 0 0.0 3.0 0.00 0.00 0.00 80 1016.8
20260902211035 78 0 0.0 6.0 0.00 0.00 0.00 80 1016.9
20260902210541 79 55 1.0 6.0 0.00 0.00 0.00 79 1016.8
20260902210100 79 69 0.0 10.0 0.00 0.00 0.00 80 1016.7
20260902205537 79 0 3.0 10.0 0.00 0.00 0.00 79 1017.3
20260902205037 79 41 2.0 10.0 0.00 0.00 0.00 78 1017.2
20260902204635 80 65 4.0 10.0 0.00 0.00 0.00 77 1017.3
20260902204035 80 67 4.0 11.0 0.00 0.00 0.00 77 1017.2
20260902203538 80 66 6.0 11.0 0.00 0.00 0.00 76 1017.1
20260902203104 81 93 5.0 11.0 0.00 0.00 0.00 75 1016.9
20260902202538 81 74 3.0 9.0 0.00 0.00 0.00 76 1017.1
20260902202038 81 37 4.0 12.0 0.00 0.00 0.00 74 1017.4
20260902201601 81 42 5.0 12.0 0.00 0.00 0.00 74 1017.3
20260902201040 81 70 1.0 8.0 0.00 0.00 0.00 75 1017.4
20260902200537 81 63 4.0 9.0 0.00 0.00 0.00 74 1017.1
20260902200059 82 78 3.0 11.0 0.00 0.00 0.00 74 1017.3
20260902195537 82 78 3.0 12.0 0.00 0.00 0.00 74 1017.3
20260902195037 83 51 3.0 12.0 0.00 0.00 0.00 74 1017.5
20260902194557 84 44 4.0 11.0 0.00 0.00 0.00 72 1017.7
20260902194039 84 314 3.0 13.0 0.00 0.00 0.00 71 1017.5
20260902193537 85 70 5.0 21.0 0.00 0.00 0.00 70 1017.3
20260902193105 85 84 6.0 21.0 0.00 0.00 0.00 69 1017.8
20260902192537 88 331 10.0 21.0 0.00 0.00 0.00 65 1017.5
20260902192036 90 86 3.0 10.0 0.00 0.00 0.00 67 1016.9
20260902191603 90 21 4.0 9.0 0.00 0.00 0.00 67 1016.6
20260902191037 90 17 3.0 11.0 0.00 0.00 0.00 67 1016.4
20260902190535 90 95 4.0 12.0 0.00 0.00 0.00 66 1016.2
20260902185534 91 72 3.0 14.0 0.00 0.00 0.00 65 1016.5
20260902185035 91 80 4.0 14.0 0.00 0.00 0.00 64 1016.6
20260902184556 92 336 6.0 11.0 0.00 0.00 0.00 64 1016.9
20260902184038 92 85 4.0 11.0 0.00 0.00 0.00 63 1016.9
20260902183538 92 48 3.0 8.0 0.00 0.00 0.00 62 1016.9
20260902183113 92 41 2.0 6.0 0.00 0.00 0.00 63 1016.8
20260902182538 92 44 2.0 7.0 0.00 0.00 0.00 63 1016.7
20260902182035 92 58 2.0 8.0 0.00 0.00 0.00 62 1016.6
20260902181613 92 57 2.0 8.0 0.00 0.00 0.00 63 1016.5
20260902181037 92 101 1.0 8.0 0.00 0.00 0.00 65 1016.5
20260902180537 92 68 2.0 8.0 0.00 0.00 0.00 63 1016.6
20260902180104 92 22 2.0 6.0 0.00 0.00 0.00 63 1016.7
20260902175539 92 81 1.0 5.0 0.00 0.00 0.00 61 1016.8
20260902175043 93 34 2.0 5.0 0.00 0.00 0.00 63 1016.8
20260902174601 92 30 0.0 6.0 0.00 0.00 0.00 62 1016.9
20260902174034 92 153 1.0 7.0 0.00 0.00 0.00 62 1016.9
20260902173535 92 57 1.0 7.0 0.00 0.00 0.00 63 1016.9
20260902173119 92 355 1.0 5.0 0.00 0.00 0.00 62 1017.0
20260902172538 92 48 2.0 5.0 0.00 0.00 0.00 64 1017.0
20260902172041 92 53 2.0 5.0 0.00 0.00 0.00 63 1016.9
20260902171606 92 137 1.0 4.0 0.00 0.00 0.00 62 1017.0
20260902171039 91 70 2.0 5.0 0.00 0.00 0.00 63 1017.1
20260902170537 91 51 2.0 5.0 0.00 0.00 0.00 62 1017.1
20260902165538 91 51 2.0 8.0 0.00 0.00 0.00 64 1017.2
20260902165036 91 69 1.0 5.0 0.00 0.00 0.00 64 1017.3
20260902164606 91 0 0.0 8.0 0.00 0.00 0.00 63 1017.3
20260902164035 91 52 2.0 8.0 0.00 0.00 0.00 64 1017.2
20260902163535 91 54 2.0 8.0 0.00 0.00 0.00 65 1017.2
20260902163053 91 47 0.0 4.0 0.00 0.00 0.00 64 1017.3
20260902162539 91 64 1.0 5.0 0.00 0.00 0.00 62 1017.2